020825 349  0.0   0.3-    020924 J97  0.2+  1.9+    021121 H43 (4.9+  4.3-) 

020825 349  0.0   0.0     020924 J97  1.0+  0.9+    021121 H43  1.0+  0.9+  

020827 379  0.2+  0.2-    020924 170  0.2-  0.2-    021122 213  0.5-  0.8+  

020827 379  0.5-  0.0     020925 213  0.1+  0.2+    021122 213  0.7+  1.5+  

020827 379  0.2+  0.2+    020925 213  0.2+  0.0     021122 213  0.8-  1.0+  

020827 379  0.2+  0.5-    020925 213  0.1-  0.0     021122 232  0.5-  1.3+  

020827 349  0.2-  0.2-    020925 442  0.0   0.4+    021122 232  0.5-  0.3+  

020827 349  0.2-  0.2-    020926 701 (1.7+  2.3+)   021122 232  0.7-  0.7-  

020827 349  0.4-  0.5-    020926 701 (1.1+  2.0+)   021124 699 (3.9+  6.7+) 

020827 349  0.1-  0.4-    020926 701  1.3+  1.8+    021124 699 (4.6+  8.1+) 

020828 379  0.8+  0.5-    020926 J97  0.9+  0.5-    021124 699 (3.2+  5.7+) 

020828 379  0.1+  0.1+    020926 235  0.3-  0.3-    021124 699 (3.5+  6.3+) 

020828 379  0.2+  0.4-    020926 J97  1.8+  1.6-    021125 670  0.0   1.0-  

020828 379  0.0   0.2-    020927 J97  1.0-  1.0-    021125 670  0.5-  0.7-  

020828 349  0.1-  0.4-    020927 939  0.1+  0.0     021125 670  0.2+  0.2-  

020828 349  0.3+  0.2-    020927 939  0.1+  0.3+    021126 J91  0.6+  1.0+  

020828 349  0.1+  0.3-    020927 939  0.5+  0.6+    021128 H43 (6.0+  4.4+) 

020828 349  0.1-  0.4-    020927 954 (0.0   2.2-)   021128 H43 (2.5+  1.4-) 

020828 458  0.3+  0.2-    020927 954 (0.6+  2.5-)   021129 232  0.4+  0.5+  

020828 458  0.4+  0.2-    020927 954 (0.2+  2.4-)   021129 232  0.0   0.9+  

020830 642  0.3-  1.7-    020928 642  0.2-  0.2-    021129 232  0.1-  1.2+  

020830 642  0.1-  0.6+    020928 642  0.9+  0.5-    021129 213  0.1-  0.9-  

020830 642  0.1+  0.2-    020928 642  0.2-  0.1-    021129 213  1.6+  0.6-  

020830 349  0.1-  0.0     020928 939  0.1-  1.6+    021129 213  0.1-  0.1-  

020830 349  0.2-  0.1-    020928 939  0.1-  1.3+    021204 J97 (1.6+  2.9+) 

020830 349  0.1-  0.4-    020928 939  0.1+  0.7+    021204 J97  1.4-  0.4+  

020830 349  0.1+  0.2-    020929 235 (2.4-  0.6+)   021206 J97 (5.3+  2.0+) 

020830 213  0.9+  0.0     020929 A46  0.8+  0.2+    021206 J97  0.8+  0.3-  

020830 213  0.9+  0.2-    020929 A46  0.3+  0.3+    021206 J97 (2.9-  2.3+) 

020830 213  0.0   0.1-    020929 A46  0.2-  0.2+    021206 213  0.7-  0.5-  

020830 232  0.3+  0.6+    020929 A46  0.4+  0.1-    021206 213  1.2+  0.8+  

020830 232  0.6+  0.6+    020929 A46  0.6-  0.2-    021206 232(11.2+  0.9-) 

020830 232  0.9+  0.4+    020929 A46  0.3+  0.3-    021206 232 (4.1+  0.3+) 

020831 613  0.3-  0.0     020929 A46  0.2-  0.1+    021206 232  1.2+  0.1+  

020831 613  0.2-  0.1-    020929 A46  0.5+  0.2-    021206 939  1.1+  0.3-  

020831 613  0.6-  0.3+    020929 A46  0.6+  0.2+    021206 939  1.2+  1.1+  

020831 613  0.2-  0.2+    020929 A46  0.2+  0.0     021206 939 (0.5+  2.4+) 

020831 613  0.9+  0.0     020929 A46  0.2+  0.2-    021207 704  0.9+  1.8+  

020831 642  0.1+  0.2+    020929 A46  0.2+  0.1-    021207 704 (1.7+  3.1+) 

020831 642  0.1-  0.2-    020929 A46  0.3+  0.0     021207 704 (1.9+  2.2+) 

020831 642  0.0   0.2+    020929 A46  0.1+  0.3+    021207 704  0.1+  1.4+  

020831 352  0.2+  0.0     020929 A46  0.5+  0.4+    021207 704 (2.2+  3.1+) 

020831 352  0.3+  0.8+    021001 349  0.2-  0.1+    021216 608  0.9+  0.1-  

020831 352  0.2+  0.3+    021001 349  0.2+  0.4+    021216 608  0.5+  0.7-  

020831 458  1.4-  0.5-    021001 349  0.0   1.2+    021216 608  0.6+  0.4-  



NAKANO

         **** Don't distribute anyone except personal use only ****

                (C) Copyright 2003 OAA/ComputingSection

write mail from CFAD0::NAKANO on 2003-01-07 05:12:31(JST).

 

  92P/Sanguin 

Epoch 2002 Oct. 13.0 TT = JDT 2452560.5  

T 2002 Sept 23.05440 TT                                 Nakano

q   1.8074266            (2000.0)            P               Q

n   0.07922060     Peri.  163.05021     +0.96707338     +0.25415577

a   5.3692130      Node   182.34967     -0.25436980     +0.96364582

e   0.6633722      Incl.   18.76451     -0.00806797     +0.08241103

P  12.44

From 29 observations 1977-2002, mean residual 0".95.



NAKANO

         **** Don't distribute anyone except personal use only ****

                (C) Copyright 2002 OAA/ComputingSection

write mail from CFAD0::NAKANO on 2002-04-26 05:07:08(JST).

 

–ß‚è‚Ü‚·B